QPF
0.00 0.00 0.00 0.01 0.01 0.01 0.01 0.01 0.00 0.00 0.00 0.01 0.00 0.00 0.00 0.00 0.00 0.00 0.00 0.00 0.00 0.00 0.01 0.01 0.01 0.01 0.01 0.01 0.01 0.01 0.01 0.01 0.01 0.01 0.02 0.02 0.01 0.01 0.01 0.01 0.02 0.02 0.02 0.02
0.00 0.00 0.00 0.00 0.00 0.00 0.01 0.01 0.00 0.01 0.01 0.01 0.00 0.00 0.00 0.00 0.00 0.00 0.01 0.00 0.00 0.00 0.01 0.01 0.01 0.01 0.01 0.01 0.01 0.01 0.02 0.02 0.02 0.02 0.03 0.03 0.02 0.02 0.02 0.02 0.02 0.02 0.02 0.01
0.00 0.00 0.00 0.01 0.00 0.00 0.01 0.01 0.01 0.02 0.02 0.01 0.01 0.01 0.00 0.00 0.00 0.00 0.00 0.00 0.00 0.00 0.01 0.01 0.02 0.01 0.01 0.01 0.01 0.01 0.02 0.02 0.01 0.02 0.03 0.03 0.02 0.03 0.03 0.04 0.04 0.03 0.02 0.01
0.00 0.00 0.01 0.00 0.00 0.00 0.01 0.01 0.02 0.02 0.01 0.01 0.01 0.01 0.01 0.00 0.00 0.00 0.00 0.00 0.01 0.01 0.01 0.01 0.01 0.02 0.01 0.01 0.02 0.02 0.02 0.02 0.01 0.02 0.02 0.02 0.02 0.02 0.03 0.05 0.05 0.05 0.04 0.03
0.00 0.00 0.00 0.00 0.00 0.00 0.01 0.01 0.01 0.01 0.01 0.00 0.00 0.00 0.01 0.01 0.01 0.00 0.00 0.00 0.01 0.01 0.01 0.02 0.02 0.02 0.02 0.02 0.04 0.03 0.01 0.01 0.01 0.01 0.02 0.01 0.01 0.02 0.02 0.02 0.04 0.04 0.04 0.04
0.01 0.00 0.01 0.00 0.00 0.00 0.00 0.01 0.01 0.01 0.01 0.00 0.00 0.00 0.00 0.01 0.01 0.00 0.01 0.01 0.01 0.01 0.01 0.01 0.02 0.02 0.02 0.01 0.04 0.04 0.02 0.02 0.01 0.01 0.01 0.02 0.02 0.03 0.04 0.04 0.04 0.04 0.04 0.05
0.00 0.00 0.01 0.01 0.00 0.00 0.01 0.01 0.01 0.01 0.01 0.01 0.00 0.00 0.00 0.01 0.01 0.01 0.01 0.00 0.00 0.01 0.01 0.01 0.02 0.02 0.01 0.01 0.01 0.03 0.02 0.02 0.03 0.03 0.04 0.04 0.04 0.04 0.05 0.05 0.05 0.04 0.04 0.05
0.00 0.01 0.01 0.01 0.01 0.01 0.01 0.01 0.01 0.01 0.01 0.00 0.00 0.00 0.00 0.01 0.01 0.01 0.01 0.01 0.01 0.01 0.01 0.02 0.02 0.02 0.02 0.02 0.02 0.02 0.01 0.02 0.05 0.05 0.05 0.04 0.04 0.05 0.05 0.05 0.04 0.04 0.03 0.03
0.00 0.00 0.00 0.01 0.01 0.01 0.01 0.01 0.01 0.01 0.01 0.01 0.01 0.01 0.01 0.01 0.00 0.01 0.02 0.02 0.01 0.02 0.02 0.01 0.01 0.02 0.02 0.02 0.02 0.02 0.01 0.01 0.02 0.03 0.03 0.03 0.03 0.03 0.02 0.02 0.02 0.02 0.02 0.02
0.01 0.01 0.00 0.00 0.01 0.01 0.01 0.01 0.01 0.01 0.02 0.01 0.01 0.01 0.01 0.01 0.01 0.01 0.02 0.03 0.03 0.03 0.03 0.02 0.02 0.01 0.01 0.02 0.02 0.03 0.03 0.02 0.02 0.01 0.02 0.02 0.01 0.01 0.01 0.01 0.01 0.01 0.01 0.02
0.01 0.01 0.01 0.01 0.01 0.01 0.01 0.01 0.01 0.02 0.02 0.02 0.02 0.01 0.01 0.01 0.01 0.01 0.02 0.03 0.03 0.02 0.02 0.02 0.02 0.02 0.02 0.03 0.03 0.03 0.03 0.03 0.02 0.02 0.02 0.02 0.02 0.02 0.02 0.02 0.02 0.02 0.01 0.02
0.01 0.01 0.02 0.01 0.01 0.01 0.01 0.02 0.02 0.02 0.02 0.02 0.02 0.03 0.02 0.01 0.01 0.02 0.03 0.02 0.02 0.02 0.01 0.01 0.01 0.02 0.03 0.04 0.04 0.04 0.03 0.03 0.03 0.02 0.02 0.02 0.02 0.02 0.02 0.02 0.02 0.02 0.02 0.02
0.01 0.01 0.01 0.01 0.02 0.02 0.02 0.02 0.02 0.02 0.02 0.02 0.02 0.02 0.02 0.02 0.02 0.02 0.02 0.03 0.03 0.02 0.02 0.01 0.02 0.02 0.02 0.03 0.03 0.04 0.04 0.04 0.03 0.03 0.03 0.03 0.03 0.03 0.02 0.02 0.02 0.02 0.02 0.02
0.01 0.01 0.02 0.02 0.02 0.02 0.02 0.02 0.02 0.02 0.02 0.02 0.02 0.02 0.02 0.02 0.02 0.02 0.03 0.03 0.03 0.03 0.03 0.03 0.03 0.03 0.02 0.02 0.04 0.04 0.04 0.03 0.03 0.03 0.03 0.02 0.02 0.03 0.03 0.02 0.02 0.02 0.02 0.02
0.01 0.02 0.03 0.03 0.02 0.03 0.03 0.04 0.03 0.03 0.03 0.03 0.03 0.02 0.02 0.02 0.03 0.03 0.03 0.03 0.02 0.03 0.03 0.03 0.03 0.02 0.03 0.03 0.03 0.03 0.03 0.03 0.02 0.03 0.03 0.03 0.03 0.03 0.03 0.03 0.02 0.02 0.03 0.02
0.02 0.02 0.03 0.04 0.04 0.04 0.05 0.06 0.06 0.05 0.04 0.04 0.04 0.04 0.02 0.02 0.03 0.03 0.02 0.02 0.03 0.03 0.03 0.03 0.04 0.04 0.03 0.03 0.03 0.03 0.02 0.02 0.02 0.04 0.04 0.04 0.04 0.04 0.04 0.03 0.03 0.04 0.04 0.04
0.02 0.04 0.05 0.06 0.05 0.05 0.05 0.06 0.06 0.05 0.05 0.04 0.05 0.05 0.04 0.03 0.03 0.03 0.03 0.04 0.05 0.06 0.06 0.05 0.05 0.05 0.04 0.04 0.03 0.02 0.02 0.02 0.02 0.03 0.04 0.05 0.06 0.05 0.04 0.02 0.03 0.04 0.04 0.03
0.04 0.05 0.06 0.06 0.06 0.07 0.07 0.08 0.07 0.06 0.06 0.06 0.05 0.06 0.04 0.04 0.03 0.03 0.03 0.04 0.08 0.09 0.08 0.08 0.08 0.06 0.05 0.04 0.04 0.03 0.02 0.02 0.03 0.03 0.03 0.03 0.05 0.07 0.05 0.03 0.02 0.02 0.03 0.03
0.05 0.06 0.06 0.06 0.06 0.05 0.05 0.05 0.04 0.04 0.04 0.05 0.05 0.06 0.06 0.05 0.04 0.03 0.03 0.05 0.07 0.09 0.08 0.07 0.07 0.07 0.06 0.06 0.06 0.05 0.04 0.03 0.02 0.03 0.03 0.03 0.03 0.04 0.06 0.06 0.05 0.04 0.03 0.03
0.07 0.07 0.07 0.07 0.06 0.05 0.05 0.05 0.04 0.03 0.03 0.05 0.05 0.05 0.05 0.05 0.05 0.04 0.04 0.04 0.05 0.05 0.05 0.06 0.05 0.05 0.06 0.06 0.06 0.06 0.04 0.03 0.02 0.02 0.02 0.02 0.03 0.03 0.04 0.05 0.06 0.05 0.04 0.03
0.05 0.07 0.09 0.09 0.05 0.05 0.07 0.08 0.06 0.04 0.03 0.05 0.05 0.04 0.04 0.04 0.06 0.05 0.04 0.03 0.04 0.04 0.04 0.04 0.04 0.04 0.04 0.04 0.04 0.04 0.04 0.03 0.03 0.03 0.03 0.03 0.03 0.02 0.02 0.02 0.02 0.03 0.03 0.03
0.02 0.05 0.07 0.05 0.04 0.05 0.05 0.06 0.07 0.07 0.06 0.05 0.04 0.04 0.03 0.03 0.05 0.05 0.04 0.03 0.03 0.04 0.04 0.03 0.03 0.03 0.03 0.03 0.02 0.02 0.03 0.04 0.04 0.05 0.04 0.03 0.03 0.02 0.02 0.02 0.02 0.02 0.02 0.02
0.03 0.04 0.04 0.03 0.03 0.03 0.03 0.03 0.03 0.03 0.03 0.05 0.05 0.05 0.04 0.04 0.04 0.05 0.04 0.03 0.02 0.03 0.03 0.04 0.03 0.03 0.03 0.03 0.03 0.03 0.04 0.04 0.04 0.04 0.04 0.03 0.02 0.02 0.02 0.02 0.02 0.02 0.02 0.02
0.05 0.05 0.05 0.05 0.04 0.03 0.02 0.02 0.01 0.01 0.02 0.02 0.03 0.03 0.04 0.04 0.03 0.03 0.03 0.04 0.04 0.04 0.03 0.03 0.03 0.03 0.03 0.04 0.04 0.04 0.04 0.04 0.03 0.03 0.03 0.03 0.02 0.02 0.02 0.02 0.02 0.02 0.02 0.02
0.04 0.04 0.03 0.03 0.02 0.01 0.01 0.01 0.01 0.01 0.01 0.02 0.01 0.01 0.02 0.02 0.02 0.02 0.02 0.03 0.05 0.05 0.03 0.03 0.03 0.03 0.03 0.03 0.04 0.03 0.03 0.03 0.03 0.03 0.03 0.03 0.02 0.03 0.03 0.03 0.02 0.02 0.02 0.01
0.01 0.02 0.03 0.03 0.02 0.02 0.01 0.01 0.02 0.02 0.01 0.01 0.01 0.01 0.01 0.01 0.02 0.01 0.01 0.02 0.02 0.03 0.03 0.03 0.03 0.04 0.03 0.04 0.03 0.03 0.03 0.03 0.03 0.03 0.04 0.04 0.03 0.03 0.04 0.04 0.04 0.03 0.02 0.02
0.02 0.02 0.03 0.03 0.02 0.02 0.01 0.01 0.02 0.02 0.02 0.01 0.01 0.01 0.01 0.01 0.01 0.01 0.02 0.01 0.01 0.01 0.01 0.01 0.02 0.02 0.02 0.02 0.01 0.02 0.02 0.02 0.03 0.04 0.05 0.07 0.07 0.07 0.08 0.07 0.07 0.07 0.04 0.02
MSLP
1004.58 1004.88 1005.11 1005.28 1005.41 1005.51 1005.59 1005.69 1005.80 1005.94 1006.11 1006.32 1006.56 1006.81 1007.07 1007.31 1007.50 1007.64 1007.68 1007.62 1007.44 1007.15 1006.73 1006.22 1005.64 1005.00 1004.35 1003.71 1003.11 1002.59 1002.16 1001.85 1001.66 1001.61 1001.70 1001.92 1002.27 1002.71 1003.24 1003.82 1004.43 1005.05 1005.65 1006.23
1004.49 1004.75 1004.92 1005.01 1005.05 1005.08 1005.13 1005.23 1005.39 1005.63 1005.95 1006.31 1006.72 1007.12 1007.49 1007.79 1008.01 1008.11 1008.08 1007.92 1007.62 1007.20 1006.67 1006.05 1005.38 1004.66 1003.94 1003.24 1002.58 1002.00 1001.52 1001.17 1000.95 1000.89 1000.99 1001.25 1001.65 1002.17 1002.78 1003.45 1004.15 1004.85 1005.52 1006.15
1004.35 1004.59 1004.73 1004.77 1004.77 1004.77 1004.81 1004.93 1005.15 1005.48 1005.90 1006.40 1006.93 1007.44 1007.88 1008.23 1008.44 1008.49 1008.39 1008.12 1007.71 1007.18 1006.55 1005.85 1005.10 1004.32 1003.54 1002.79 1002.09 1001.46 1000.93 1000.54 1000.29 1000.22 1000.33 1000.62 1001.08 1001.68 1002.38 1003.14 1003.94 1004.72 1005.46 1006.14
1004.14 1004.37 1004.49 1004.52 1004.51 1004.51 1004.57 1004.72 1005.00 1005.40 1005.92 1006.50 1007.11 1007.69 1008.18 1008.54 1008.73 1008.75 1008.58 1008.24 1007.76 1007.15 1006.46 1005.70 1004.91 1004.10 1003.29 1002.50 1001.76 1001.10 1000.53 1000.10 999.82 999.74 999.85 1000.16 1000.66 1001.33 1002.11 1002.97 1003.85 1004.72 1005.54 1006.28
1003.82 1004.05 1004.17 1004.22 1004.23 1004.26 1004.35 1004.56 1004.89 1005.35 1005.93 1006.57 1007.23 1007.84 1008.35 1008.71 1008.89 1008.89 1008.69 1008.32 1007.81 1007.18 1006.47 1005.71 1004.91 1004.10 1003.29 1002.49 1001.74 1001.05 1000.45 999.98 999.68 999.57 999.68 1000.01 1000.54 1001.25 1002.10 1003.03 1003.99 1004.94 1005.81 1006.60
1003.42 1003.63 1003.77 1003.85 1003.91 1003.99 1004.14 1004.40 1004.79 1005.30 1005.92 1006.59 1007.27 1007.89 1008.41 1008.77 1008.95 1008.94 1008.75 1008.40 1007.90 1007.31 1006.64 1005.92 1005.16 1004.38 1003.60 1002.82 1002.08 1001.38 1000.77 1000.28 999.96 999.83 999.93 1000.26 1000.81 1001.56 1002.45 1003.43 1004.45 1005.44 1006.36 1007.17
1002.95 1003.16 1003.32 1003.45 1003.57 1003.73 1003.96 1004.28 1004.72 1005.27 1005.91 1006.59 1007.27 1007.89 1008.40 1008.77 1008.96 1008.97 1008.82 1008.51 1008.09 1007.56 1006.97 1006.33 1005.65 1004.95 1004.23 1003.50 1002.78 1002.10 1001.50 1001.01 1000.68 1000.55 1000.65 1000.98 1001.54 1002.30 1003.21 1004.21 1005.25 1006.26 1007.19 1008.00
1002.50 1002.70 1002.89 1003.07 1003.27 1003.52 1003.83 1004.22 1004.72 1005.30 1005.95 1006.63 1007.30 1007.90 1008.40 1008.77 1008.98 1009.03 1008.93 1008.70 1008.36 1007.94 1007.45 1006.92 1006.34 1005.73 1005.09 1004.44 1003.78 1003.15 1002.58 1002.12 1001.81 1001.69 1001.80 1002.13 1002.69 1003.45 1004.35 1005.35 1006.38 1007.38 1008.29 1009.06
1002.11 1002.31 1002.53 1002.78 1003.07 1003.40 1003.80 1004.27 1004.82 1005.44 1006.09 1006.76 1007.41 1007.99 1008.47 1008.83 1009.06 1009.14 1009.10 1008.95 1008.71 1008.39 1008.02 1007.60 1007.13 1006.63 1006.10 1005.53 1004.96 1004.41 1003.91 1003.50 1003.24 1003.15 1003.27 1003.62 1004.17 1004.91 1005.79 1006.76 1007.75 1008.70 1009.55 1010.27
1001.85 1002.05 1002.31 1002.63 1003.00 1003.43 1003.92 1004.47 1005.06 1005.70 1006.36 1007.01 1007.63 1008.18 1008.64 1008.99 1009.22 1009.33 1009.34 1009.26 1009.10 1008.88 1008.61 1008.30 1007.94 1007.55 1007.12 1006.67 1006.20 1005.74 1005.34 1005.01 1004.81 1004.78 1004.93 1005.28 1005.83 1006.54 1007.38 1008.29 1009.21 1010.09 1010.86 1011.50
1001.74 1001.95 1002.25 1002.64 1003.10 1003.61 1004.18 1004.79 1005.44 1006.09 1006.75 1007.38 1007.97 1008.48 1008.91 1009.24 1009.47 1009.60 1009.64 1009.60 1009.51 1009.36 1009.18 1008.95 1008.70 1008.41 1008.09 1007.74 1007.38 1007.04 1006.74 1006.51 1006.39 1006.42 1006.60 1006.97 1007.50 1008.17 1008.95 1009.78 1010.61 1011.40 1012.08 1012.62
1001.77 1001.99 1002.34 1002.79 1003.33 1003.92 1004.56 1005.23 1005.90 1006.58 1007.23 1007.84 1008.39 1008.87 1009.26 1009.57 1009.78 1009.92 1009.98 1009.98 1009.92 1009.83 1009.70 1009.55 1009.37 1009.17 1008.94 1008.70 1008.45 1008.22 1008.03 1007.90 1007.86 1007.94 1008.17 1008.53 1009.04 1009.65 1010.35 1011.09 1011.82 1012.50 1013.08 1013.54
1001.88 1002.13 1002.53 1003.04 1003.64 1004.29 1004.99 1005.69 1006.40 1007.08 1007.72 1008.31 1008.83 1009.28 1009.65 1009.94 1010.15 1010.28 1010.35 1010.37 1010.34 1010.28 1010.20 1010.10 1009.98 1009.84 1009.70 1009.55 1009.40 1009.26 1009.17 1009.13 1009.16 1009.30 1009.54 1009.89 1010.36 1010.91 1011.52 1012.15 1012.78 1013.35 1013.84 1014.22
1002.01 1002.31 1002.75 1003.31 1003.96 1004.66 1005.39 1006.13 1006.85 1007.53 1008.17 1008.75 1009.25 1009.69 1010.04 1010.32 1010.52 1010.66 1010.74 1010.78 1010.77 1010.74 1010.69 1010.63 1010.55 1010.47 1010.39 1010.31 1010.24 1010.19 1010.17 1010.20 1010.29 1010.45 1010.69 1011.02 1011.43 1011.91 1012.42 1012.96 1013.48 1013.96 1014.36 1014.68
1002.11 1002.46 1002.95 1003.55 1004.24 1004.98 1005.73 1006.48 1007.21 1007.90 1008.53 1009.10 1009.60 1010.04 1010.39 1010.68 1010.90 1011.05 1011.16 1011.21 1011.23 1011.23 1011.20 1011.17 1011.13 1011.09 1011.06 1011.03 1011.02 1011.02 1011.06 1011.13 1011.25 1011.42 1011.65 1011.94 1012.29 1012.68 1013.11 1013.55 1013.98 1014.38 1014.72 1014.99
1002.15 1002.55 1003.09 1003.73 1004.44 1005.20 1005.97 1006.73 1007.46 1008.15 1008.79 1009.36 1009.87 1010.32 1010.69 1011.00 1011.25 1011.44 1011.57 1011.66 1011.71 1011.73 1011.74 1011.73 1011.72 1011.71 1011.70 1011.71 1011.74 1011.78 1011.85 1011.94 1012.07 1012.24 1012.44 1012.69 1012.98 1013.30 1013.65 1014.01 1014.36 1014.70 1014.99 1015.24
1002.13 1002.59 1003.17 1003.84 1004.58 1005.35 1006.12 1006.88 1007.62 1008.31 1008.95 1009.53 1010.06 1010.53 1010.93 1011.28 1011.57 1011.80 1011.97 1012.09 1012.18 1012.23 1012.26 1012.28 1012.29 1012.30 1012.32 1012.35 1012.39 1012.46 1012.54 1012.64 1012.77 1012.93 1013.11 1013.32 1013.56 1013.83 1014.11 1014.41 1014.72 1015.01 1015.27 1015.50
1002.07 1002.59 1003.22 1003.93 1004.68 1005.45 1006.23 1006.99 1007.71 1008.40 1009.05 1009.64 1010.19 1010.68 1011.12 1011.50 1011.83 1012.09 1012.31 1012.47 1012.59 1012.67 1012.73 1012.76 1012.79 1012.82 1012.85 1012.90 1012.96 1013.03 1013.12 1013.23 1013.36 1013.51 1013.67 1013.86 1014.07 1014.31 1014.56 1014.82 1015.09 1015.36 1015.61 1015.83
1002.05 1002.63 1003.30 1004.03 1004.79 1005.57 1006.34 1007.09 1007.80 1008.48 1009.12 1009.72 1010.28 1010.78 1011.24 1011.65 1012.00 1012.30 1012.55 1012.74 1012.88 1012.99 1013.06 1013.12 1013.16 1013.20 1013.25 1013.31 1013.38 1013.47 1013.57 1013.69 1013.83 1013.98 1014.15 1014.33 1014.54 1014.76 1015.00 1015.25 1015.51 1015.76 1016.01 1016.23
1002.11 1002.74 1003.45 1004.19 1004.96 1005.73 1006.49 1007.22 1007.91 1008.58 1009.20 1009.79 1010.33 1010.84 1011.30 1011.72 1012.08 1012.39 1012.65 1012.86 1013.02 1013.14 1013.23 1013.30 1013.36 1013.42 1013.48 1013.56 1013.65 1013.76 1013.88 1014.03 1014.18 1014.36 1014.55 1014.75 1014.97 1015.20 1015.45 1015.70 1015.96 1016.20 1016.44 1016.64
1002.30 1002.97 1003.70 1004.45 1005.21 1005.96 1006.69 1007.39 1008.05 1008.68 1009.28 1009.84 1010.36 1010.84 1011.29 1011.69 1012.04 1012.35 1012.60 1012.81 1012.98 1013.11 1013.22 1013.31 1013.39 1013.47 1013.56 1013.67 1013.79 1013.93 1014.09 1014.27 1014.46 1014.67 1014.89 1015.13 1015.38 1015.63 1015.89 1016.15 1016.40 1016.64 1016.85 1017.03
1002.62 1003.31 1004.04 1004.79 1005.52 1006.24 1006.93 1007.58 1008.20 1008.79 1009.33 1009.85 1010.33 1010.78 1011.19 1011.56 1011.89 1012.17 1012.42 1012.62 1012.79 1012.94 1013.06 1013.18 1013.29 1013.41 1013.54 1013.69 1013.85 1014.04 1014.25 1014.47 1014.71 1014.96 1015.22 1015.49 1015.76 1016.04 1016.31 1016.57 1016.82 1017.03 1017.21 1017.35
1003.03 1003.73 1004.44 1005.15 1005.85 1006.52 1007.15 1007.75 1008.31 1008.84 1009.34 1009.80 1010.23 1010.63 1011.00 1011.34 1011.64 1011.90 1012.13 1012.34 1012.52 1012.68 1012.83 1012.98 1013.14 1013.31 1013.49 1013.69 1013.91 1014.15 1014.41 1014.68 1014.96 1015.25 1015.55 1015.85 1016.15 1016.43 1016.71 1016.96 1017.18 1017.36 1017.50 1017.59
1003.48 1004.15 1004.83 1005.49 1006.13 1006.74 1007.31 1007.85 1008.35 1008.82 1009.26 1009.68 1010.06 1010.42 1010.75 1011.05 1011.33 1011.58 1011.81 1012.02 1012.21 1012.41 1012.60 1012.80 1013.01 1013.24 1013.49 1013.75 1014.04 1014.33 1014.64 1014.96 1015.28 1015.60 1015.92 1016.23 1016.53 1016.81 1017.07 1017.30 1017.49 1017.63 1017.72 1017.75
1003.91 1004.53 1005.15 1005.75 1006.32 1006.86 1007.37 1007.84 1008.29 1008.71 1009.10 1009.47 1009.82 1010.15 1010.46 1010.74 1011.01 1011.26 1011.50 1011.73 1011.96 1012.20 1012.45 1012.71 1012.98 1013.28 1013.59 1013.92 1014.26 1014.60 1014.96 1015.31 1015.65 1015.99 1016.31 1016.62 1016.91 1017.17 1017.41 1017.60 1017.75 1017.85 1017.88 1017.86
1004.25 1004.82 1005.37 1005.89 1006.39 1006.86 1007.30 1007.72 1008.12 1008.51 1008.87 1009.22 1009.56 1009.88 1010.18 1010.47 1010.74 1011.01 1011.28 1011.54 1011.82 1012.11 1012.41 1012.73 1013.07 1013.43 1013.80 1014.18 1014.57 1014.96 1015.34 1015.71 1016.07 1016.40 1016.72 1017.01 1017.27 1017.51 1017.70 1017.86 1017.97 1018.02 1018.02 1017.96
1004.49 1004.99 1005.46 1005.91 1006.34 1006.75 1007.14 1007.53 1007.90 1008.26 1008.62 1008.97 1009.31 1009.64 1009.96 1010.27 1010.57 1010.87 1011.17 1011.48 1011.80 1012.14 1012.49 1012.87 1013.26 1013.67 1014.09 1014.51 1014.93 1015.34 1015.74 1016.11 1016.46 1016.79 1017.08 1017.35 1017.58 1017.78 1017.95 1018.07 1018.15 1018.17 1018.15 1018.07
Thickness
5771 5776 5777 5774 5775 5777 5775 5778 5774 5780 5784 5793 5796 5797 5798 5797 5797 5797 5796 5796 5796 5795 5794 5792 5790 5788 5786 5784 5781 5778 5774 5771 5768 5766 5763 5760 5758 5755 5753 5751 5750 5747 5745 5743
5757 5767 5769 5766 5772 5774 5773 5777 5777 5778 5780 5795 5796 5796 5792 5791 5791 5790 5790 5791 5792 5790 5788 5786 5784 5783 5781 5778 5776 5773 5769 5766 5763 5761 5758 5756 5753 5751 5748 5746 5744 5743 5741 5739
5746 5758 5755 5750 5766 5769 5771 5777 5775 5770 5779 5787 5784 5784 5784 5786 5787 5786 5787 5787 5786 5785 5784 5782 5781 5778 5775 5773 5771 5768 5764 5761 5758 5756 5753 5750 5749 5746 5744 5742 5739 5737 5736 5734
5743 5738 5724 5759 5775 5773 5769 5772 5776 5775 5777 5779 5778 5781 5783 5785 5783 5782 5783 5783 5782 5781 5780 5779 5777 5774 5771 5768 5765 5761 5759 5756 5754 5751 5748 5745 5743 5740 5738 5736 5734 5731 5729 5728
5733 5729 5738 5751 5759 5761 5756 5757 5768 5767 5769 5771 5774 5774 5775 5779 5780 5779 5779 5779 5778 5777 5775 5773 5770 5768 5764 5760 5757 5754 5753 5751 5749 5746 5742 5739 5737 5734 5732 5730 5728 5726 5725 5722
5724 5718 5720 5741 5753 5759 5752 5743 5759 5761 5760 5762 5762 5759 5765 5772 5773 5772 5772 5773 5771 5771 5769 5765 5763 5761 5757 5754 5751 5749 5748 5746 5744 5740 5737 5734 5732 5729 5728 5725 5723 5722 5720 5718
5715 5713 5729 5738 5746 5747 5727 5734 5749 5753 5753 5754 5755 5758 5761 5763 5762 5762 5762 5763 5763 5762 5759 5758 5756 5753 5750 5748 5746 5745 5742 5739 5736 5733 5731 5729 5726 5724 5722 5720 5717 5715 5713 5712
5709 5704 5714 5733 5735 5729 5729 5737 5741 5744 5746 5747 5749 5751 5751 5751 5751 5752 5753 5753 5754 5752 5750 5749 5748 5745 5743 5741 5741 5739 5736 5732 5729 5727 5726 5724 5720 5717 5715 5713 5710 5708 5706 5705
5712 5713 5720 5727 5727 5728 5730 5728 5731 5734 5736 5738 5738 5738 5740 5740 5740 5742 5743 5743 5743 5742 5741 5741 5741 5739 5735 5735 5734 5731 5728 5724 5722 5720 5718 5716 5713 5711 5709 5707 5706 5704 5702 5700
5703 5710 5715 5717 5719 5721 5722 5722 5725 5727 5728 5729 5727 5728 5729 5730 5731 5731 5732 5732 5733 5733 5731 5730 5731 5731 5730 5729 5726 5723 5720 5717 5715 5714 5712 5709 5707 5706 5704 5701 5699 5697 5695 5693
5697 5702 5706 5708 5710 5711 5713 5715 5717 5719 5719 5719 5719 5719 5719 5720 5721 5721 5721 5722 5723 5723 5722 5722 5722 5722 5722 5721 5718 5714 5711 5710 5709 5708 5706 5702 5700 5697 5695 5693 5691 5688 5687 5686
5693 5698 5698 5699 5703 5705 5704 5705 5707 5708 5708 5710 5710 5709 5710 5710 5710 5711 5712 5713 5713 5713 5713 5714 5713 5713 5713 5712 5709 5706 5704 5703 5703 5702 5699 5697 5694 5689 5683 5681 5678 5675 5673 5671
5690 5694 5695 5695 5696 5697 5696 5697 5698 5699 5699 5699 5700 5701 5701 5701 5702 5702 5703 5704 5704 5704 5704 5704 5704 5703 5704 5703 5701 5698 5696 5695 5696 5694 5692 5689 5687 5684 5680 5674 5668 5666 5664 5661
5684 5684 5682 5684 5686 5688 5688 5688 5689 5690 5691 5691 5692 5692 5693 5693 5693 5693 5694 5695 5695 5695 5695 5695 5695 5695 5696 5694 5692 5689 5689 5687 5686 5685 5684 5682 5680 5677 5675 5672 5668 5664 5658 5653
5677 5678 5678 5679 5679 5679 5680 5679 5678 5678 5680 5681 5683 5684 5684 5684 5683 5684 5686 5687 5687 5686 5686 5686 5685 5685 5686 5685 5683 5681 5681 5680 5679 5678 5676 5674 5672 5670 5668 5666 5663 5660 5656 5649
5670 5671 5671 5670 5670 5670 5670 5670 5669 5669 5671 5673 5674 5675 5676 5676 5676 5676 5677 5677 5677 5677 5676 5677 5676 5677 5677 5675 5673 5672 5671 5668 5667 5668 5668 5666 5664 5662 5660 5657 5655 5653 5649 5646
5660 5660 5661 5661 5662 5662 5662 5663 5663 5664 5665 5665 5666 5667 5667 5667 5667 5667 5668 5669 5669 5668 5668 5668 5667 5668 5668 5667 5665 5665 5664 5661 5657 5659 5659 5657 5655 5653 5651 5649 5646 5644 5641 5637
5657 5658 5658 5657 5657 5656 5656 5657 5657 5657 5657 5658 5659 5659 5659 5659 5659 5659 5659 5659 5659 5659 5660 5660 5659 5658 5658 5658 5657 5658 5655 5653 5652 5651 5650 5647 5645 5644 5643 5640 5638 5635 5633 5630
5653 5653 5653 5652 5653 5652 5651 5651 5651 5651 5652 5652 5651 5651 5651 5652 5652 5651 5651 5650 5651 5650 5650 5651 5648 5649 5649 5649 5648 5646 5645 5644 5643 5642 5640 5636 5635 5636 5635 5632 5630 5628 5625 5622
5645 5646 5646 5646 5647 5647 5646 5646 5646 5645 5645 5645 5645 5645 5645 5645 5645 5644 5644 5643 5644 5644 5642 5641 5641 5641 5641 5641 5638 5639 5637 5636 5634 5633 5631 5629 5628 5627 5626 5624 5622 5619 5616 5614
5638 5639 5639 5639 5639 5639 5639 5639 5639 5638 5638 5637 5637 5637 5637 5638 5638 5637 5637 5637 5636 5635 5635 5632 5634 5634 5634 5632 5629 5632 5630 5627 5625 5623 5622 5621 5619 5618 5616 5614 5612 5609 5606 5603
5631 5631 5632 5632 5632 5632 5632 5632 5632 5632 5631 5630 5630 5630 5629 5629 5630 5630 5629 5629 5629 5625 5627 5629 5628 5625 5623 5621 5624 5623 5621 5619 5616 5615 5613 5611 5609 5607 5606 5603 5600 5598 5595 5592
5624 5625 5625 5625 5625 5625 5625 5626 5626 5626 5624 5624 5623 5623 5623 5623 5624 5623 5622 5622 5621 5617 5619 5620 5617 5613 5611 5614 5616 5614 5611 5609 5607 5606 5604 5602 5601 5599 5597 5594 5591 5588 5585 5583
5619 5619 5619 5620 5620 5619 5618 5620 5620 5620 5619 5618 5618 5617 5617 5617 5617 5618 5616 5612 5610 5609 5612 5610 5606 5605 5603 5608 5607 5605 5603 5601 5599 5597 5595 5594 5592 5590 5588 5585 5582 5579 5576 5574
5615 5615 5615 5614 5614 5615 5615 5615 5615 5614 5614 5614 5614 5613 5613 5612 5611 5611 5609 5607 5604 5602 5605 5602 5599 5597 5599 5601 5600 5598 5596 5594 5592 5590 5587 5585 5583 5581 5579 5577 5574 5570 5567 5565
5611 5612 5611 5610 5611 5611 5612 5612 5611 5610 5610 5609 5609 5608 5607 5606 5604 5603 5601 5601 5599 5596 5598 5597 5596 5593 5595 5595 5594 5591 5588 5586 5585 5583 5580 5577 5575 5572 5570 5567 5564 5562 5559 5556
5608 5608 5607 5608 5608 5607 5607 5607 5606 5606 5606 5605 5604 5603 5602 5601 5599 5597 5595 5594 5593 5593 5592 5592 5591 5590 5590 5588 5586 5583 5582 5579 5577 5575 5572 5570 5567 5564 5561 5558 5556 5553 5550 5548